Regional Weather Roundup
Issued by NWS Charleston, SC

Current Version | Previous Version | Graphics & Text | Print | Product List | Glossary On
Versions: 1 2 3 4 5 6 7 8 9 10 11 12 13 14 15 16 17 18 19 20 21 22 23 24 25 26 27 28 29 30 31 32 33 34 35 36 37 38 39 40 41 42 43 44 45 46 47 48 49 50
000
ASUS42 KCHS 050627
RWRCHS

REGIONAL WEATHER ROUNDUP
NATIONAL WEATHER SERVICE CHARLESTON SC
200 AM EDT SUN JUL 05 2015

NOTE: "FAIR" INDICATES FEW OR NO CLOUDS BELOW 12,000 FEET WITH NO
SIGNIFICANT WEATHER AND/OR OBSTRUCTIONS TO VISIBILITY.

NOT ALL STATIONS ARE QUALITY CONTROLLED BY THE NATIONAL
WEATHER SERVICE. USE DATA WITH CAUTION...ESPECIALLY
DEWPOINT OBSERVATIONS.

SCZ027-030-031-034>040-042>050-050700-
...SOUTHEAST SOUTH CAROLINA...

CITY           SKY/WX    TMP DP  RH WIND       PRES   REMARKS
N CHARLESTON   PTCLDY    73  71  93 CALM      30.09F
6HR MIN TEMP:  72; 6HR MAX TEMP:  77; 6HR PCP:  0.04;

WATERFRONT PAR   N/A     77  74  91 VRB3      30.08S
MOUNT PLEASANT FAIR      73  72  94 S3        30.09F FOG
JOHNS ISLAND   FAIR      75  73  94 CALM      30.09F
PINOPOLIS      NOT AVBL
MONCKS CORNER  FAIR      72  70  94 CALM      30.09F
SUMMERVILLE    FAIR      72  72 100 CALM      30.10S
BEAUFORT MCAS  CLEAR     74  72  93 S3        30.10F
6HR MIN TEMP:  73; 6HR MAX TEMP:  75; 6HR PCP: TRACE;

BEAUFORT ARPT  FAIR      75  73  94 CALM      30.10S
HILTON HEAD IS PTCLDY    73  73 100 S5        30.11S FOG
WALTERBORO     PTCLDY    70  70 100 CALM      30.10F
ALLENDALE      FAIR      72  70  94 CALM      30.10R

...SOUTHERN MIDLANDS AND PEE DEE...

CITY           SKY/WX    TMP DP  RH WIND       PRES   REMARKS
GEORGETOWN     NOT AVBL
KINGSTREE      NOT AVBL
ORANGEBURG     MOCLDY    71  68  90 S3        30.09F
6HR MIN TEMP:  71; 6HR MAX TEMP:  82;

BARNWELL       FAIR      72  72 100 SW3       30.10S
AIKEN          NOT AVBL
MANNING        FAIR      72  68  88 SW3       30.08F
COLUMBIA       CLOUDY    75  67  76 SW6       30.07S
6HR MIN TEMP:  75; 6HR MAX TEMP:  86;

SUMTER         CLOUDY    73  67  82 S3        30.06F
6HR MIN TEMP:  73; 6HR MAX TEMP:  84;

FLORENCE       PTCLDY    76  67  73 SW7       30.07F
6HR MIN TEMP:  76; 6HR MAX TEMP:  85;

MYRTLE BEACH   PTCLDY    75  64  69 SW5       30.10
N MYRTLE BEACH PTCLDY    76  66  71 SW5       30.08S
6HR MIN TEMP:  76; 6HR MAX TEMP:  83;


$$

GAZ063-065-086>088-099>101-113>116-118-119-134>141-150-050700-
...SOUTHEAST GEORGIA...

CITY           SKY/WX    TMP DP  RH WIND       PRES   REMARKS
SAVANNAH ARPT  CLEAR     73  69  87 SW7       30.12S
6HR MIN TEMP:  73; 6HR MAX TEMP:  75; 6HR PCP: TRACE;

HUNTER AAF     CLEAR     72  72 100 S2        30.09F
6HR MIN TEMP:  72; 6HR MAX TEMP:  74; 6HR PCP:  0.03;

FORT STEWART   PTCLDY    72  70  94 S3        30.10S
6HR MIN TEMP:  72; 6HR MAX TEMP:  74; 6HR PCP: TRACE;

STATESBORO     NOT AVBL
SYLVANIA       PTCLDY    73  73 100 CALM      30.11F
CLAXTON        FAIR      72  72 100 CALM      30.11F

...CSRA...CENTRAL AND FAR SOUTHEAST GEORGIA...

CITY           SKY/WX    TMP DP  RH WIND       PRES   REMARKS
THOMSON        CLOUDY    74  74  98 CALM      30.12F
AUGUSTA-BUSH   CLOUDY    73  71  93 S5        30.08S
6HR MIN TEMP:  72; 6HR MAX TEMP:  82;

AUGUSTA-DANIEL CLOUDY    74  70  87 S6        30.09F
SWAINSBORO     FAIR     N/A N/A N/A S5        30.09F
VIDALIA        PTCLDY    72  70  94 S7        30.09F
EASTMAN        FAIR      73  73 100 SW3       30.11F
HAZLEHURST     FAIR      74  74 100 S5        30.10S
ALMA           PTCLDY    71  70  96 S6        30.12F
6HR MIN TEMP:  71; 6HR MAX TEMP:  75;

WAYCROSS       MOCLDY    74  74  98 S3        30.11F
JESUP          FAIR      73  72  94 CALM      30.12F
BAXLEY         FAIR      72  72 100 S5        30.11F
BRUNSWICK      PTCLDY    72  72 100 CALM      30.13S
SAINT SIMONS   CLEAR     73  72  96 CALM      30.12F
6HR MIN TEMP:  73; 6HR MAX TEMP:  75; 6HR PCP: TRACE;


$$

SCZ027-028-034-036>038-045-046-048>050-GAZ119-141-050700-
...LAKE AND SUPPLEMENTAL COASTAL OBSERVATIONS...

STATION/POSITION TIME  TEMP    WIND        PRES    WAVE   SWELL
                       AIR SEA DIR/SP/G            HT/PER HT/PER/DIR
                 (UTC) (F)     (DEG/KT/KT) (MB)    (FT/S) (FT/S/D)
UPR LAKE MARION  NOT AVBL
WINYAH BAY       0545   77     240/  7     1018.0S
LAKE MURRAY      0500   77     250/  9/ 12 1017.9S
ACE BASIN NERRS  NOT AVBL
FORT PULASKI     0600   76 84  220/  2/  4 1020.1F
SAPELO ISLAND    0600   75     200/  5     1020.0S

$$

ANZ835-935-AMZ111-154-330-350-352-354-370-450-454-472-050700-
...C-MAN AND BUOY OBSERVATIONS...

STATION/POSITION TIME  TEMP    WIND        PRES    WAVE   SWELL
                       AIR SEA DIR/SP/G            HT/PER HT/PER/DIR
                 (UTC) (F)     (DEG/KT/KT) (MB)    (FT/S) (FT/S/D)
BUOY 41004       0550   81 82  220/ 12/ 14 1018.9F   3/ 8   3/ 8
BUOY 41008       0550   78 79  230/ 10/ 12 1019.9F   2/10   2/160/10
FOLLY BEACH CMAN 0600   80     210/ 13/ 16 1019.1F
CAPERS NEARSHORE 0508   81     230/ 14/ 17 1019.7S
FRIPP NEARSHORE  0500   81     210/ 12/ 14 1019.3F


STATION/POSITION TIME  TEMP    WIND        PRES    WAVE   SWELL
                       AIR SEA DIR/SP/G            HT/PER HT/PER/DIR
                 (UTC) (F)     (DEG/KT/KT) (MB)    (FT/S) (FT/S/D)
5E ST. MARYS GA  0521      78                N/A     2/10
FRYING PAN BUOY  0550   80 78  230/ 14/ 16 1019.2R   4/ 5   2/130/ 9
BUOY 41025       0550   80 81  240/ 19/ 23 1017.6R   5/ 5   2/140/ 9
CAPE LOOKOUT NC  0600   79     240/ 11/ 15 1017.9F
BUOY 41002       0550   81 80  240/ 10/ 12 1021.8S   5/ 6   5/250/ 6
BUOY 41010       0520   83 84  160/ 10/ 14 1021.2S
ST AUGUSTINE FL  0600   76 72  190/  5/  5 1021.2F


$$


USA.gov is the U.S. government's official web portal to all federal, state and local government web resources and services.